{"data":{"norad_id":59881,"epoch":"2026-09-22T12:56:26.853216Z","epoch_age_seconds":99361,"freshness":"FRESH","line1":"1 59881U 24099A   26265.53919969  .00002338  00000+0  10654-3 0  9991","line2":"2 59881  97.3963 120.1070 0010701 219.3595 140.6865 15.21611245128935","mean_motion":15.21611245,"eccentricity":0.0010701,"inclination_deg":97.3963,"raan_deg":120.107,"arg_perigee_deg":219.3595,"mean_anomaly_deg":140.6865,"bstar":0.00010654,"rev_number":12893,"period_min":94.636524587461,"perigee_km":493.61875048494,"apogee_km":508.34143688885,"semimajor_km":6879.1170936869,"source":"CELESTRAK","updated_at":"2026-09-23T09:00:19.763842Z"}}